Valentine, NE

1:39 AM CDT on August 17, 2017 (GMT -0500)
Miller Field

Weather History for KVTN - May, 2014

Change the Weather History Date:

Tuesday, May 6, 2014

  Actual Average Record
Temperature  
Mean Temperature 59 °F 54 °F  
Max Temperature 71 °F 68 °F 90 °F (1896)
Min Temperature 47 °F 41 °F 21 °F (1976)
Degree Days  
Heating Degree Days 6 11  
Month to date heating degree days 74 73  
Since 1 July heating degree days 7047 6756  
Cooling Degree Days 0 1  
Month to date cooling degree days 0 3  
Year to date cooling degree days 0 7  
Growing Degree Days 8 (Base 50)    
Moisture  
Dew Point 45 °F    
Average Humidity 61    
Maximum Humidity 80    
Minimum Humidity 41    
Precipitation  
Precipitation 0.00 in 0.09 in 0.92 in (1968)
Month to date precipitation 0.00 0.55  
Year to date precipitation 4.20 4.58  
Snow  
Snow 0.00 in 0.00 in 0.50 in (1929)
Month to date snowfall 0.0 0.1  
Since 1 July snowfall 34.8 33.3  
Snow Depth 0.00 in    
Sea Level Pressure  
Sea Level Pressure 29.63 in    
Wind  
Wind Speed 9 mph (East)    
Max Wind Speed 15 mph    
Max Gust Speed 18 mph    
Visibility 10 miles    
Events      
T = Trace of Precipitation, MM = Missing Value Source: NWS Daily Summary

Daily Weather History Graph

Daily Weather History Graph

Search for Another Location

Airport or City:

Trip Planner

Search our weather history database for the weather conditions in past years. The results will help you decide how hot, cold, wet, or windy it might be!

Date:

Astronomy

May. 06, 2014 Rise Set
Actual Time 6:29 AM CDT 8:48 PM CDT
Civil Twilight 5:58 AM CDT 9:20 PM CDT
Nautical Twilight 5:19 AM CDT 9:59 PM CDT
Astronomical Twilight 4:35 AM CDT 10:43 PM CDT
Moon 12:49 PM CDT (5/6) 2:07 AM CDT (5/6)
Length of Visible Light 15h 22m
Length of Day
14h 18m
Waxing Crescent, 46% of the Moon is Illuminated
May 6
Waxing Crescent
May 6
First Quarter
May 14
Full
May 21
Last Quarter
May 28
New

Hourly Weather History & Observations

Time (CDT) Temp. Dew Point Humidity Pressure Visibility Wind Dir Wind Speed Gust Speed Precip Events Conditions
12:52 AM 53.6 °F 41.0 °F 62% 29.73 in 10.0 mi ESE 11.5 mph - N/A   Clear
1:52 AM 53.1 °F 41.0 °F 64% 29.69 in 10.0 mi SE 10.4 mph - N/A   Clear
2:52 AM 52.0 °F 41.0 °F 66% 29.67 in 10.0 mi SE 9.2 mph - N/A   Clear
6:52 AM 48.2 °F 41.0 °F 76% 29.72 in 10.0 mi East 8.1 mph - N/A   Clear
7:52 AM 48.9 °F 42.1 °F 77% 29.70 in 10.0 mi ENE 10.4 mph - N/A   Clear
9:52 AM 57.9 °F 44.1 °F 60% 29.65 in 10.0 mi ESE 10.4 mph - N/A   Clear
10:52 AM 63.0 °F 45.0 °F 52% 29.63 in 10.0 mi SSE 12.7 mph - N/A   Clear
11:52 AM 66.0 °F 46.0 °F 48% 29.62 in 10.0 mi Variable 5.8 mph - N/A   Clear
12:52 PM 70.0 °F 46.0 °F 42% 29.60 in 10.0 mi East 8.1 mph - N/A   Clear
1:52 PM 69.1 °F 46.0 °F 44% 29.60 in 10.0 mi East 10.4 mph - N/A   Clear
2:52 PM 69.1 °F 46.0 °F 44% 29.59 in 10.0 mi SE 9.2 mph - N/A   Clear
3:52 PM 71.1 °F 46.0 °F 41% 29.57 in 10.0 mi East 8.1 mph - N/A   Clear
4:52 PM 71.1 °F 46.0 °F 41% 29.57 in 10.0 mi ESE 8.1 mph - N/A   Clear
5:52 PM 69.1 °F 46.9 °F 45% 29.58 in 10.0 mi ESE 11.5 mph - N/A   Clear
6:52 PM 68.0 °F 46.9 °F 47% 29.57 in 10.0 mi East 12.7 mph - N/A   Clear
7:52 PM 66.0 °F 46.9 °F 50% 29.59 in 10.0 mi East 8.1 mph - N/A   Clear
8:52 PM 59.0 °F 46.9 °F 64% 29.61 in 10.0 mi ENE 9.2 mph - N/A   Clear
9:52 PM 55.0 °F 46.9 °F 74% 29.60 in 10.0 mi NE 8.1 mph - N/A   Clear
10:52 PM 54.0 °F 46.0 °F 75% 29.59 in 10.0 mi ENE 8.1 mph - N/A   Clear
11:52 PM 53.6 °F 46.4 °F 77% 29.61 in 10.0 mi NE 6.9 mph - N/A   Clear